Ardabil, Iran

8:21 PM +0330 on October 14, 2019 (GMT +0330)
Ardabil

Weather History for OITL - August, 2019

Change the Weather History Date:

Tuesday, August 6, 2019

  Actual Average (WUND) Record (WUND)
Temperature  
Mean Temperature 58 °F -  
Max Temperature 62 °F - - (-1)
Min Temperature 55 °F - - (-1)
Degree Days  
Heating Degree Days 6    
Growing Degree Days 8 (Base 50)    
Moisture  
Dew Point 52 °F    
Average Humidity 79    
Maximum Humidity 88    
Minimum Humidity 59    
Precipitation  
Precipitation 0.00 in - - ()
Sea Level Pressure  
Sea Level Pressure 30.05 in    
Wind  
Wind Speed 18 mph ()    
Max Wind Speed 26 mph    
Max Gust Speed -    
Visibility 5.8 miles    
Events Fog    
Averages and records for this station are not official NWS values.
T = Trace of Precipitation, MM = Missing Value Source: Averaged Metar Reports

Daily Weather History Graph

Daily Weather History Graph

Search for Another Location

Airport or City:

Astronomy

Aug. 06, 2019 Rise Set
Actual Time 6:22 AM +0430 8:21 PM +0430
Civil Twilight 5:53 AM +0430 8:50 PM +0430
Nautical Twilight 5:18 AM +0430 9:25 PM +0430
Astronomical Twilight 4:39 AM +0430 10:03 PM +0430
Moon 12:16 PM +0430 (8/6) 11:59 PM +0430 (8/6)
Length of Visible Light 14h 57m
Length of Day
13h 59m
Waxing Crescent, 34% of the Moon is Illuminated
Aug 6
Waxing Crescent
Aug 7
First Quarter
Aug 15
Full
Aug 23
Last Quarter
Aug 30
New

Hourly Weather History & Observations

Time (+0430) Temp. Dew Point Humidity Pressure Visibility Wind Dir Wind Speed Gust Speed Precip Events Conditions
12:26 AM 57.2 °F 53.6 °F 88% 29.98 in 5.0 mi East 18.4 mph - N/A Fog Fog
1:21 AM 57.2 °F 53.6 °F 88% 29.98 in 6.2 mi East 18.4 mph - N/A Fog Scattered Clouds
2:22 AM 59.0 °F 55.4 °F 88% 29.98 in 6.2 mi ENE 18.4 mph - N/A Fog Scattered Clouds
3:23 AM 57.2 °F 53.6 °F 88% 29.98 in 6.2 mi ENE 18.4 mph - N/A Fog Scattered Clouds
4:23 AM 57.2 °F 51.8 °F 82% 29.98 in 6.2 mi ENE 18.4 mph - N/A   Scattered Clouds
5:24 AM 57.2 °F 53.6 °F 88% 30.01 in 6.2 mi ENE 13.8 mph - N/A   Scattered Clouds
6:21 AM 57.2 °F 53.6 °F 88% 30.01 in 6.2 mi ENE 13.8 mph - N/A   Scattered Clouds
6:30 AM 57.2 °F 53.6 °F 88% 30.01 in 6.2 mi ENE 13.8 mph - N/A   Scattered Clouds
7:22 AM 57.2 °F 53.6 °F 88% 30.04 in 3.7 mi ENE 16.1 mph - N/A   Light Drizzle
8:25 AM 57.2 °F 53.6 °F 88% 30.04 in 5.0 mi ENE 19.6 mph - N/A Fog Light Drizzle
8:30 AM 57.2 °F 53.6 °F 88% 30.04 in 5.0 mi ENE 19.6 mph - N/A Fog Light Drizzle
9:24 AM 59.0 °F 53.6 °F 82% 30.06 in 5.0 mi ENE 21.9 mph - N/A Fog Fog
9:30 AM 59.0 °F 53.6 °F 82% 30.06 in 5.0 mi ENE 21.9 mph - N/A Fog Fog
10:00 AM 59.0 °F 53.6 °F 82% 30.06 in 5.0 mi ENE 24.2 mph - N/A Fog Fog
10:23 AM 59.0 °F 53.6 °F 82% 30.06 in 5.6 mi ENE 24.2 mph - N/A Fog Light Drizzle
10:30 AM 59.0 °F 53.6 °F 82% 30.06 in 5.6 mi ENE 24.2 mph - N/A Fog Light Drizzle
11:00 AM 59.0 °F 53.6 °F 82% 30.06 in 5.6 mi ENE 24.2 mph - N/A Fog Mostly Cloudy
11:23 AM 60.8 °F 53.6 °F 77% 30.06 in 5.6 mi ENE 26.5 mph - N/A Fog Mostly Cloudy
11:30 AM 60.8 °F 53.6 °F 77% 30.06 in 5.6 mi ENE 26.5 mph - N/A Fog Mostly Cloudy
12:22 PM 62.6 °F 53.6 °F 72% 30.06 in 5.6 mi ENE 26.5 mph - N/A Fog Mostly Cloudy
12:30 PM 62.6 °F 53.6 °F 72% 30.06 in 5.6 mi ENE 26.5 mph - N/A Fog Mostly Cloudy
1:21 PM 59.0 °F 53.6 °F 82% 30.06 in 5.6 mi ENE 21.9 mph - N/A Fog Mostly Cloudy
1:30 PM 59.0 °F 53.6 °F 82% 30.06 in 5.6 mi ENE 21.9 mph - N/A Fog Mostly Cloudy
2:23 PM 57.2 °F 53.6 °F 88% 30.06 in 5.0 mi ENE 21.9 mph - N/A Fog Light Drizzle
3:22 PM 60.8 °F 51.8 °F 72% 30.06 in 6.2 mi ENE 26.5 mph - N/A Fog Mostly Cloudy
3:30 PM 60.8 °F 51.8 °F 72% 30.06 in 6.2 mi ENE 26.5 mph - N/A Fog Mostly Cloudy
4:21 PM 60.8 °F 50.0 °F 68% 30.06 in 6.2 mi ENE 26.5 mph - N/A Fog Mostly Cloudy
4:30 PM 60.8 °F 50.0 °F 68% 30.06 in 6.2 mi ENE 26.5 mph - N/A Fog Mostly Cloudy
5:00 PM 60.8 °F 50.0 °F 68% 30.06 in 6.2 mi ENE 26.5 mph - N/A Fog Mostly Cloudy
5:21 PM 59.0 °F 51.8 °F 77% 30.06 in 6.2 mi ENE 26.5 mph - N/A Fog Mostly Cloudy
5:30 PM 59.0 °F 51.8 °F 77% 30.06 in 6.2 mi ENE 26.5 mph - N/A Fog Mostly Cloudy
6:21 PM 57.2 °F 51.8 °F 82% 30.06 in 6.2 mi NE 19.6 mph - N/A Fog Mostly Cloudy
6:30 PM 57.2 °F 51.8 °F 82% 30.06 in 6.2 mi NE 19.6 mph - N/A Fog Mostly Cloudy
7:00 PM 57.2 °F 51.8 °F 82% 30.09 in 6.2 mi ENE 18.4 mph - N/A Fog Mostly Cloudy
7:21 PM 55.4 °F 48.2 °F 77% 30.09 in 6.2 mi ENE 18.4 mph - N/A   Mostly Cloudy
7:30 PM 55.4 °F 48.2 °F 77% 30.09 in 6.2 mi ENE 18.4 mph - N/A   Mostly Cloudy
8:23 PM 57.2 °F 42.8 °F 59% 30.12 in 6.2 mi ENE 11.5 mph - N/A   Mostly Cloudy
9:22 PM 57.2 °F 42.8 °F 59% 30.12 in 6.2 mi ENE 11.5 mph - N/A   Mostly Cloudy
10:21 PM 57.2 °F 42.8 °F 59% 30.12 in 6.2 mi ENE 9.2 mph - N/A   Mostly Cloudy
11:22 PM 57.2 °F 42.8 °F 59% 30.12 in 6.2 mi ENE 13.8 mph - N/A   Mostly Cloudy